Regional Weather Roundup
Issued by NWS

Home | Current Version | Previous Version | Text Only | Print | Product List | Glossary On
Versions: 1 2 3 4 5 6 7 8 9 10 11 12 13 14 15 16 17 18 19 20 21 22 23 24 25 26 27 28 29 30 31 32 33 34 35 36 37 38 39 40 41 42 43 44 45 46 47 48 49 50
000
ASUS43 KMPX 151901
RWRMN
WEATHER ROUNDUP FOR MINNESOTA
NATIONAL WEATHER SERVICE TWIN CITIES/CHANHASSEN MN
100 PM CST FRI DEC 15 2017


NOTE: "FAIR" INDICATES FEW OR NO CLOUDS BELOW 12,000 FEET WITH NO
SIGNIFICANT WEATHER AND/OR OBSTRUCTIONS TO VISIBILITY. N/A MEANS
CURRENT SKY AND/OR WEATHER CONDITIONS ARE NOT AVAILABLE.

MNZ060>063-068>070-152000-
   Twin Cities Metro

CITY           SKY/WX    TMP DP  RH WIND       PRES   REMARKS
TWIN CITIES    CLOUDY    26  20  77 NE5       29.84F WCI  20
ST PAUL        CLOUDY    25  17  72 CALM      29.85F
CRYSTAL        CLOUDY    24  14  65 CALM      29.83F
BLAINE         CLOUDY    25  16  68 NW3       29.83F
LAKEVILLE        N/A     27  21  80 W5        29.83F WCI  21
EDEN PRAIRIE   CLOUDY    28  21  75 CALM      29.81F
SOUTH ST PAUL  CLOUDY    25  17  72 CALM      29.83F
LAKE ELMO      FAIR      27  18  69 CALM      29.84F
$$
MNZ001>005-007-008-013>017-022>024-027-028-152000-
   Northwest Minnesota

CITY           SKY/WX    TMP DP  RH WIND       PRES   REMARKS
BEMIDJI        CLOUDY    12   7  78 SE3       29.74F
HALLOCK        CLOUDY    18  14  86 SE14      29.74F WCI   4
ROSEAU         FLURRIES  12   7  79 S6        29.75F WCI   3
WARROAD        FLURRIES  10   7  85 S3        29.76F
CROOKSTON      CLOUDY    19  16  86 S10       29.76F WCI   8
FOSSTON        CLOUDY    16  10  79 S7        29.74F WCI   6
DETROIT LAKES  CLOUDY    21  18  86 SE8       29.74F WCI  12
MOORHEAD       CLOUDY    23  18  80 SE10      29.75F WCI  12
PARK RAPIDS    CLOUDY    15  10  80 S3        29.74F
MAHNOMEN       CLOUDY    18  13  83 SE7       29.75F WCI   8
$$
MNZ006-009>011-018-025>026-152000-
   North Central Minnesota

CITY           SKY/WX    TMP DP  RH WIND       PRES   REMARKS
BAUDETTE       CLOUDY     8   3  80 S7        29.76F WCI  -3
FLAG ISLAND    CLOUDY     7   1  78 S9        29.76F WCI  -7
INTL FALLS     CLOUDY     8   2  76 VRB5      29.78F WCI   0
WASKISH        CLOUDY    12   7  79 CALM      29.76F
BIG FORK       MOSUNNY   12   3  67 S6        29.76F WCI   3
LONGVILLE      CLOUDY    16   9  73 CALM      29.78F
GRAND RAPIDS   CLOUDY    15   5  64 S3        29.79F
CRANE LAKE     CLOUDY     9   1  72 CALM      29.80F
ORR            MOSUNNY    9   0  66 CALM      29.74F
COOK           PTSUNNY   10   1  67 W3        29.76F
WALKER         CLOUDY    11   6  79 CALM      29.77F
$$
MNZ012-019>021-037-152000-
   Northeast Minnesota

CITY           SKY/WX    TMP DP  RH WIND       PRES   REMARKS
DULUTH         PTSUNNY   11   3  70 W9        29.76F WCI  -2
ELY            CLOUDY     9   1  72 W6        29.75F WCI  -1
HIBBING        CLOUDY     9   2  73 VRB5      29.77F WCI   1
EVELETH        SUNNY     10   1  67 CALM      29.77F
DULUTH HARBOR  CLOUDY    16   7  67 W6        29.84F WCI   7
TWO HARBORS    SUNNY     21   7  53 NW5       29.77F WCI  15
SILVER BAY     SUNNY     16   3  57 W5        29.77F WCI   9
GRAND MARAIS     N/A     16   1  51 VRB6      29.81F WCI   7
G MARAIS ARPRT SUNNY      7  -6  56 NW8       29.69F WCI  -6
$$
MNZ029>031-032-039>041-046>048-054>057-064-152000-
   West Central Minnesota

CITY           SKY/WX    TMP DP  RH WIND       PRES   REMARKS
FERGUS FALLS   CLOUDY    25  19  80 S9        29.78F WCI  15
WHEATON        CLOUDY    28  25  86 SE9       29.78F WCI  20
MORRIS         CLOUDY    27  25  93 S8        29.76F WCI  18
ALEXANDRIA     CLOUDY    24  18  77 SE7       29.77F WCI  16
ELBOW LAKE     CLOUDY    25  22  86 E8        29.76F WCI  17
WADENA         CLOUDY    19  12  73 CALM      29.75F
GLENWOOD       CLOUDY    25  19  80 S7        29.77F WCI  17
APPLETON       CLOUDY    30  27  86 S5        29.78F WCI  25
BENSON         CLOUDY    28  25  86 S7        29.79F WCI  21
ORTONVILLE     MOSUNNY   30  27  86 S5        29.76F WCI  25
MADISON        MOSUNNY   36  32  87 S6        29.77F
WILLMAR        PTSUNNY   28  27  93 SE6       29.80F WCI  22
$$
MNZ033>034-036-042>043-049>051-058-059-152000-
   Central Minnesota

CITY           SKY/WX    TMP DP  RH WIND       PRES   REMARKS
ST CLOUD       CLOUDY    22  16  78 S5        29.81F WCI  16
SAUK CENTRE    CLOUDY    22  14  69 CALM      29.79F
PAYNESVILLE    FLURRIES  26  21  81 CALM      29.80F
AITKIN         CLOUDY    18   9  68 SW5       29.78F WCI  11
PINE RIVER     CLOUDY    16   9  73 SW3       29.81F
BRAINERD       CLOUDY    19  10  68 SW6       29.79F WCI  11
STAPLES        CLOUDY    18  10  73 CALM      29.77F
LITTLE FALLS   CLOUDY    21  10  63 CALM      29.80F
LITCHFIELD     MIX PCPN  28  25  86 CALM      29.81F
BUFFALO        MOSUNNY   24  17  73 CALM      29.83F
MAPLE LAKE     MOSUNNY   26  20  77 E3        29.83F
HUTCHINSON     LGT SNOW  28  25  91 SE3       29.82F
$$
MNZ037-044-045-052-053-152000-
   East Central Minnesota

CITY           SKY/WX    TMP DP  RH WIND       PRES   REMARKS
PRINCETON      CLOUDY    25  14  63 CALM      29.82F
MORA           MOSUNNY   19  10  68 SW6       29.84F WCI  11
CAMBRIDGE      CLOUDY    21  10  63 S3        29.83F
RUSH CITY      CLOUDY    19  10  69 CALM      29.83F
MOOSE LAKE     PTSUNNY   19   9  63 CALM      29.79F
HINCKLEY       CLOUDY    19  12  73 S5        29.81F WCI  13
CLOQUET        CLOUDY    14   3  62 W5        29.77F WCI   6
MCGREGOR       CLOUDY    19  10  68 SW5       29.79F WCI  13
$$
MNZ071>073-080-081-089-090-097-098-152000-
   Southwest Minnesota

CITY           SKY/WX    TMP DP  RH WIND       PRES   REMARKS
MONTEVIDEO     MOSUNNY   34  28  80 CALM      29.78F
GRANITE FALLS  MOSUNNY   36  31  85 CALM      29.81F
CANBY          MOSUNNY   38  30  72 SW8       29.78F
MARSHALL       SUNNY     37  28  70 W10       29.79F
REDWOOD FALLS  CLOUDY    35  30  82 VRB5      29.79F WCI  31
OLIVIA         PTSUNNY   32  28  86 SE6       29.79F WCI  26
PIPESTONE      MOSUNNY   36  27  69 W10       29.77F
WINDOM           N/A     39  23  52 SW12      29.80F
WORTHINGTON    PTSUNNY   39  27  62 W18       29.79F
JACKSON        SUNNY     37  28  70 MISG      29.81F
SLAYTON        SUNNY     35  29  80 SW10      29.80F WCI  27
$$
MNZ065>067-074>077-082>085-091>093-152000-
   South Central Minnesota

CITY           SKY/WX    TMP DP  RH WIND       PRES   REMARKS
MANKATO        CLOUDY    33  29  85 CALM      29.82F
NEW ULM        CLOUDY    32  28  86 CALM      29.81F
ST JAMES       CLOUDY    36  28  75 W8        29.82F
FAIRMONT       CLOUDY    38  28  67 W9        29.82F
GLENCOE        CLOUDY    27  28 100 CALM      29.81F
FARIBAULT      CLOUDY    28  25  86 CALM      29.82F
OWATONNA       CLOUDY    30  28  93 CALM      29.82F
WASECA         CLOUDY    32  30  93 W9        29.82F WCI  24
ALBERT LEA     CLOUDY    34  27  75 W8        29.82F WCI  27
$$
MNZ078>079-086>088-094>096-152000-
   Southeast Minnesota

CITY           SKY/WX    TMP DP  RH WIND       PRES   REMARKS
ROCHESTER      CLOUDY    29  27  92 W9        29.81F WCI  20
RED WING       CLOUDY    28  18  64 NW5       29.83F WCI  23
STANTON        CLOUDY    29  24  82 CALM      29.82F HAZE
DODGE CENTER   CLOUDY    30  27  86 W7        29.80F WCI  23
WINONA         CLOUDY    32  27  80 W5        29.85F WCI  27
AUSTIN         MIX PCPN  32  28  86 W9        29.82F WCI  24
PRESTON        CLOUDY    30  27  89 W10       29.82F WCI  21
$$
ABBREVIATIONS USED IN REMARKS
   TC - TEMPERATURES IN CELSIUS
  WCI - WIND CHILL INDEX
   HX - HEAT INDEX
  VSB - VISIBILITY
$$




USA.gov is the U.S. government's official web portal to all federal, state and local government web resources and services.